Weather in Metro

Indonesia     5°05′40″S   105°20′27″E
temp.,
°C
wind,
m/s
gust,
m/s
humid.,
%
clouds,
%
prec.,
mm/h
press.,
hPa
HPBL,
m
11 may, tue
tue1101:00+25sse23915 0.0 100946
04:00+24sse22905 0.0 100823
07:00+25s23867 0.0 1010110
10:00+30ese34639 0.1 10091381
13:00+33ese33475 0.1 10072001
16:00+32e335145 0.0 10051780
19:00+26ese3780100 0.0 1007137
22:00+25ese228869 0.0 100937
12 may, wed
wed1201:00+24s2389100 0.0 100844
04:00+24s238697 0.0 100748
07:00+25s228434 0.0 1009104
10:00+31ese346687 0.0 10081119
13:00+32e345894 0.2 10051657
16:00+30e237186 1.7 1005113
19:00+26e348699 2.6 100766
22:00+25ese118896 0.0 100811
13 may, thu
thu1301:00+25s119296 0.1 100711
04:00+24sw119395 0.0 100612
07:00+25sw1188100 0.1 100869
10:00+30e346995 0.2 10071118
13:00+33ene3553100 0.3 10051884
16:00+31ene456599 0.3 1004909
19:00+26e358796 0.3 1007104
22:00+26se118922 0.3 100813
14 may, fri
fri1401:00+25ssw22925 0.6 100621
04:00+24s229522 0.6 100626
07:00+26sse118992 0.6 100793
10:00+30e346926 0.3 10071061
13:00+31e346893 6.2 10051077
16:00+29ene237544 3.9 1005349
19:00+26e238799 4.3 100660
22:00+26sse228991 0.5 100827
15 may, sat
sat1501:00+25ssw229293 0.6 100637
04:00+24ssw229376 0.0 100536
07:00+26ssw228948 0.0 100788
10:00+30ese337198 1.4 1007970
13:00+31ese346559 3.8 10051277
16:00+31e346591 1.4 10041118
19:00+27ese3584100 1.6 1006107
22:00+26se3488100 0.0 100786